Погода в Рязани

Погода в Рязани : погода сейчас, прогноз погоды и архив. Всё, что Вы хотите узнать о погоде в Рязани!

Хотите узнать прогноз погоды в Рязани? Тогда Вам сюда: Погода в Рязани

Поиск расширенной информации на нашем сайте:

Другие новости

Новости СМИ2

Главная страница сайта

Новости сайта

03.07.2017

Напоминаем, что на нашем специализированном сайте Метеоцентр.Азия вы можете получить высокодетализированные автоматические прогнозы погоды по пунктам России, СНГ и мира в авиационном формате (включающие направление и скорость ветра, видимость, явления погоды, количество и форму облачности, нижнюю и верхнюю границу облачности).

Рекомендуем: Информация medicine на нашем сайте.

Погода в Рязани - сегодня

Время (UTC), дата Ветер
(°,м/с) 
Видим.   Явления Облачность Т
(°С)
Тd
(°С)
f(%) Тe
(°С)
Pmin
(гПа)
dP
(гПа)
Po
(мм)
O2
(г/м3)
Тmin Tmax R s Состояние
почвы
03 14.02.18 080 (В) 10 км    3/0 верхняя 
[Ci fib]
-11.1 -12.1 92 -11  1030  0.3  757  319  -11.2      равномерный
сухой снег
100% 
09 14.02.18 100 (В) 20000 м    5/3 600 м верхняя 
[Sc|Ci fib]
-7.5 -10.9 77 -9  1031.4  0.9  758  315           
12 14.02.18 110 (В) 20000 м    8/0 верхняя 
[Cs]
-6.7 -11.2 70 -9  1031.7  0.4  758  314           
18 14.02.18 100 (В) 20000 м    8/0 средняя 
[Ac trans]
-7.4 -11.4 73 -9  1032.6  0.2  759  315           
21 14.02.18 120 (ЮВ) 20000 м    10/10 600 м 
[Sc]
-8.5 -11.6 78 -8  1033.4  0.7  760  317           
00 15.02.18 130 (ЮВ) 4000 м  слаб. снег  10/10 300 м 
[Ns]
-9.5 -10.9 90 -9  1034.3  0.8  760  318           
03 15.02.18 100 (В) 4000 м  слаб. снег  10/10 300 м 
[Ns]
-10.4 -11.6 91 -10  1034.6  0.3  760  320  -10.4    0.6  равномерный
сухой снег
100% 
06 15.02.18 100 (В) 4000 м  слаб. снег  10/10 300 м 
[Ns]
-9.8 -11.3 89 -10  1035.5  0.8  761  319           
09 15.02.18 160 (Ю) 4000 м  слаб. снег  10/10 300 м 
[Ns]
-8 -10.8 80 -8  1036.4  1.1  762  317           
12 15.02.18 140 (ЮВ) 4000 м  слаб. снег  10/10 300 м 
[Ns]
-7.1 -9.8 81 -7  1036.6  0.3  762  316           
18 15.02.18 140 (ЮВ) 4000 м  слаб. снег  10/10 300 м 
[Ns]
-7.1 -8.4 90 -9  1036.7  762  316           
21 15.02.18 150 (ЮВ) 20000 м  {снег}  10/10 300 м 
[Sc]
-6.8 -8.6 87 -8  1036.4  -0.3  762  316           
00 16.02.18 160 (Ю) 20000 м  {снег}  10/10 300 м 
[Sc]
-6.7 -8.9 84 -8  1036.4  762  316           
03 16.02.18 140 (ЮВ) 10 км    10/10 300 м 
[Sc]
-6.6 -7.7 92 -8  1035.6  -0.8  761  315  -7.2    0.0  равномерный
сухой снег
100% 
06 16.02.18 160 (Ю) 4000 м  слаб. снег  10/10 300 м 
[Ns]
-6 -7 93 -7  1035.7  0.2  761  314           
09 16.02.18 170 (Ю) 4000 м  слаб. снег  10/10 300 м 
[Ns]
-4.3 -6.2 87 -6  1035.4  -0.2  761  312           
12 16.02.18 150 (ЮВ) 20000 м  {снег}  9/9 600 м 
[Sc]
-3.1 -5.4 84 -6  1034.6  -0.8  761  311           
18 16.02.18 150 (ЮВ) 20000 м    10/10 600 м 
[Sc]
-4.4 -7.4 80 -7  1033.4  -1.1  760  312           
21 16.02.18 160 (Ю) 20000 м    10/10 600 м 
[Sc]
-4.6 -6.9 84 -8  1032.4  -0.9  759  312           
00 17.02.18 160 (Ю) 20000 м    10/10 600 м 
[Sc]
-4.8 -7.8 79 -7  1031.7  -0.7  758  312           
03 17.02.18 150 (ЮВ) 20000 м    10/10 600 м 
[Sc]
-5.5 -7.2 88 -8  1030.5  -1.2  758  312  -5.5      равномерный
сухой снег
100% 
09 17.02.18 160 (Ю) 10 км  слаб. снег  10/0 средняя 
[As op]
-5.1 -7.1 86 -8  1028.7  -1  756  311           
12 17.02.18 140 (ЮВ) 10 км  в посл. час снег  10/0 средняя 
[As op]
-4.9 -6.7 87 -6  1027.5  -1.2  755  311           
18 17.02.18 140 (ЮВ) 10 км  слаб. снег  10/10 300 м 
[Frnb|Ns]
-5.6 -6.5 93 -7  1025.8  -0.9  754  311           
21 17.02.18 140 (ЮВ) н/о    н/о 
-5.2 -6 94 -8  1024.2  -1.5  753  310           
Время (UTC), дата Ветер
(°,м/с) 
Видим.   Явления Облачность Т
(°С)
Тd
(°С)
f(%) Тe
(°С)
Pmin
(гПа)
dP
(гПа)
Po
(мм)
O2
(г/м3)
Тmin Tmax R s Состояние
почвы

Для получения пояснительной информации подведите курсор к названию столбца.

ПОГОДА в Рязани - архив

Всё, что Вы хотите узнать о погоде в Рязани - удобно и подробно!

Выберите нужную дату (начиная с 1 января 2015* года) и нажмите кнопку "Найти".
Будут отображены архивные сводки погоды по пункту Рязань, начиная с указанной даты.


Отображать данные в формате CSV (для использования в таблицах Excel)


Внимание! Наш архив погоды предназначен исключительно для личного некоммерческого использования в познавательных целях. Если Вам необходимы официальные справки о состоянии погоды (для производственных, юридических, коммерческих и т.п. целей), обращайтесь в органы Росгидромета.

*Примечание: данная дата относится к архиву по метеостанциям СССР (Россия, СНГ, Балтия).
Архив по метеостанциям Зарубежной Европы и Азии (кроме Китая) хранится 10 дней, по другим регионам земного шара (Китай, Африка, Америка, Австралия, Океания) - 1 день.

Рязань - район местоположения метеостанции


Название, широта, долгота, высота метеостанции:
Рязань 54.6°ш. 39.7°д. 158 м над ур. моря [Российская Федерация]

Дополнительная информация

В oтличие oт бoльшинства пoгoдных сайтoв мы публикуем пoдрoбную метеoинфoрмацию в детальнoм прoфессиoнальнoм фoрмате.

Характеристики температуры и влажнoсти вoздуха измеряются на высoте 2 м в тени вдали oт зданий и деревьев.
Скoрoсть ветра измеряется на высoте 10 м (на урoвне рoста челoвека скoрoсть ветра ниже в 1.5-2 раза). Если метеoстанция нахoдится в гoрoде или в лесу, тo скoрoсть ветра занижена на 2-4 м/с пo сравнению с oткрытым местoм. Скoрoсть ветра над акватoриями крупных рек и oзёр, а также на вершинах хoлмoв на 2-5 м/с выше, чем в oбычных услoвиях.
Атмoсфернoе давление в разных тoчках местнoсти мoжет значительнo oтличаться oт давления на метеoстанции, в зависимoсти oт услoвий рельефа (при пoдъёме на 10 м давление пoнижается примернo на 1 мм рт.ст.).